DECAYED

DELTA 1 DEB, 21318 (Decayed)

Orbit data source: Space-Track

DELTA 1 DEB, 21318 was space debris in SSO originally from a launch on Thu, 12 Jun 1975 UTC launched from the Air Force Western Test Range (AFWTR). Debris objects in space refer to the collection of defunct objects orbiting the Earth. Examples of debris include non-operational satellites, rocket bodies, and fragments generated from explosions, collisions, or faulty payload assembly.

Not visible in the next 10 days
Identifier
21318, 1975-052AL
Orbit
Decayed
Country
Flag of USUS
Related business
Manufacturer
Unknown
Mission
Decayed spacecraft
Bus & Motor
Unknown
Mass
Unknown
Launch date (UTC)
1975-06-12 (51 years ago)
Launch vehicle
Unknown
Launch site
Air Force Western Test Range (AFWTR)
Object type
Payload
Rocket body
Debris
Shape & HBR
Unknown shape, 0.1 m
Radar Cross Section
Small (<0.1 m²)

Expand to show TLE details & history
Last TLE update: 1 year ago

TLE from 1 year ago
0 DELTA 1 DEB
1 21318U 75052AL  25073.44528551  .11298784  26282+0  45387-1 0  9992
2 21318  99.2927  42.0365 0025134 143.4131 216.8860 15.92799581724243
Epoch: 2025-03-14T10:41Z
TLE epoch observation values (Epoch: 2025-03-14T10:41:12.668Z)
Latitude
Longitude
69.42864°
Altitude
311.011 km
Speed
7.714 km/s
True Right ascension
02h 48m 08s
True Declination
0° 00' 00"
Sunlit
Object was in daylight at epoch
Visualization orbit readout
Latitude
Unknown
Longitude
Unknown
Altitude
Unknown
Speed
Unknown
Apparent Right ascension
Unknown
Apparent Declination
Unknown
Sunlit
N/A
Visualization observer readout
Local Sidereal Time
11:17:21
Azimuth
Unknown
Elevation
Unknown
Doppler factor
Unknown
Orbital elements
Apogee altitude
308.179 km
Perigee altitude
274.653 km
Semi-major axis
6,669.553 km
Eccentricity
0.00251
Inclination
99.2927°
RAAN
42.0365°
Arg. of periapsis
143.4131°
True anomaly
216.71356°
Mean anomaly
216.886°
Eccentric anomaly
216.79974°
Mean motion
3.98472 °/min
Orbital period
90.35 mins
BSTAR
0.045387
Loading maneuver chart data...
Computing Atmospheric mass density...
Loading historical data...
Loading historical data...
Loading historical data...
Loading historical data...
Loading historical data...
Loading historical data...
Loading historical data...

Documentation

Showing up to 5 results
|